Flag for U.S.A. Weather past 2 weeks in Woodstock, New York, U.S.A.

Now
36 °F

Sunny.


Feels Like: 36 °F
Forecast: 20 / 42 °F
Wind: No wind

Location: Dutchess County Airport

Current Time: Mar 29, 2015 at 12:44:10 PM

Latest Report: Mar 29, 2015 at 11:53 AM


Visibility: 10 mi

Pressure: 30.25 "Hg

Humidity: 23%

Dew point: 2 °F

Location of WoodstockLocation

Historic Weather in Woodstock — Graph

°F

Woodstock temperature yesterday

Maximum temperature yesterday: 36 °F (at 12:53 AM)
Minimum temperature yesterday: 28 °F (at 10:53 PM)
Average temperature yesterday: 32 °F

Past Weeks' High & Low Weather Summary

 TemperatureHumidityPressure
High50 °F (Mar 17, 1:53 PM)100% (Mar 14, 7:53 PM)30.41 "Hg (Mar 14, 7:53 PM)
Low15 °F (Mar 19, 6:53 AM)18% (Mar 19, 5:53 PM)29.54 "Hg (Mar 17, 11:00 AM)
Average34 °F61%30.01 "Hg
* Reported Mar 14 10:53 AM — Mar 29 10:53 AM, Woodstock, Weather by CustomWeather, © 2015

Note: Actual official high and low records may vary slightly from our data, if they occured in-between our weather recording intervals... More about our weather records

Advertising

Woodstock weather history for previous 24 hours

 ConditionsComfort  
Time TempWeatherWind HumidityBarometerVisibility
10:53 AM
Sun, Mar 29
33 °FSunny.No wind30%30.27 "Hg10 mi
9:53 AM29 °FSunny.No wind38%30.27 "Hg10 mi
8:53 AM27 °FSunny.6 mph41%30.27 "Hg10 mi
7:53 AM22 °FSunny.No wind66%30.25 "Hg10 mi
6:53 AM19 °FClear.No wind68%30.23 "Hg10 mi
5:53 AM20 °FClear.No wind62%30.20 "Hg10 mi
4:53 AM22 °FClear.No wind55%30.17 "Hg10 mi
3:53 AM25 °FPassing clouds.3 mph40%30.15 "Hg10 mi
2:53 AM26 °FOvercast.8 mph40%30.15 "Hg10 mi
1:53 AM26 °FOvercast.9 mph42%30.14 "Hg10 mi
12:53 AM27 °FMostly cloudy.9 mph46%30.13 "Hg10 mi
11:53 PM
Sat, Mar 28
28 °FOvercast.6 mph53%30.12 "Hg10 mi
10:53 PM28 °FMostly cloudy.9 mph56%30.11 "Hg10 mi
9:53 PM29 °FMostly cloudy.7 mph58%30.08 "Hg10 mi
8:53 PM30 °FMostly cloudy.9 mph64%30.04 "Hg10 mi
7:53 PM30 °FLight snow. Overcast.6 mph66%30.00 "Hg6 mi
7:00 PM30 °FLight snow. Mostly cloudy.7 mph72%29.98 "Hg2 mi
5:53 PM33 °FLight snow. Overcast.10 mph58%29.92 "Hg3 mi
4:53 PM33 °FMore clouds than sun.14 mph58%29.88 "Hg10 mi
3:53 PM33 °FOvercast.13 mph61%29.86 "Hg6 mi
2:56 PM33 °FLight snow. More clouds than sun.15 mph63%29.87 "Hg2 mi
2:00 PM33 °FCloudy.15 mph66%29.87 "Hg2 mi
12:53 PM31 °FLight snow. Overcast.12 mph76%29.86 "Hg2 mi
Weather by CustomWeather, © 2015

See weather overviewHow to use our weather pages